NOAA NWS Hourly Roundups by Site

Regional Weather Roundup for San Diego, CA

To Select Another Site Choose from List

Select Site:  

144
ASUS46 KSGX 182110
RWRSGX

SAN DIEGO HOURLY WEATHER ROUNDUP
NATIONAL WEATHER SERVICE SAN DIEGO CA
200 PM PDT THU JUL 18 2024

NOTE: "FAIR" INDICATES FEW OR NO CLOUDS BELOW 12,000 FEET WITH NO
SIGNIFICANT WEATHER AND/OR OBSTRUCTIONS TO VISIBILITY.

CAZ042-043-060-061-PZZ750-775-182200-

GREATER SAN DIEGO AREA

CITY           SKY/WX    TMP DP  RH WIND       PRES   REMARKS
SAN DIEGO AP   PTSUNNY   74  64  71 W7        30.00S
BROWN FIELD    SUNNY     77  63  61 W12G17    29.98F
MIRAMAR MCAS   MOSUNNY   78  64  61 W9G16     29.98F
MONTGOMERY FLD SUNNY     71  63  75 SW6       29.98F
GILLESPIE FLD  SUNNY     84  63  48 SW9       29.97S
LEMON GROVE      N/A     74  65  73 W9        29.95F

$$

NORTH SAN DIEGO COUNTY

CITY           SKY/WX    TMP DP  RH WIND       PRES   REMARKS
CAMP PENDLETON SUNNY     81  65  58 SW9G17    29.97F
OCEANSIDE AP   SUNNY     79  64  60 W12       29.97S
OCEANSIDE HBR    N/A     69  65  88 W13       30.03F
VISTA            N/A     78  66  67 CALM      29.95S
CARLSBAD       SUNNY     72  62  71 SW10G17   29.98F
ENCINITAS        N/A     77  69  77 W12         N/A
LA JOLLA SCRIP   N/A     69  60  74 CALM      29.98F
FALLBROOK      SUNNY     81  64  57 SW8       29.98F
ESCONDIDO        N/A     88  67  48 NW6       29.95S
SAN MARCOS       N/A     78  67  68 W8        29.95S
RANCHO BERNARD   N/A     80  66  62 CALM      29.94F
POWAY            N/A     85  68  56 SW3       29.97S

$$

EAST SAN DIEGO COUNTY

CITY           SKY/WX    TMP DP  RH WIND       PRES   REMARKS
RAMONA         SUNNY     92  64  39 W10G17    29.98F
SANTEE           N/A     87  69  54 CALM      29.91F
LA MESA          N/A     79  67  66 CALM      29.90F
EL CAJON         N/A     83  67  57 NE1       29.83F
ALPINE           N/A     89  66  46 CALM      30.11F
DESCANSO N       N/A     93  64  38 SW7       29.92F

$$

ORANGE COUNTY AND THE LOS ANGELES BASIN

CITY           SKY/WX    TMP DP  RH WIND       PRES   REMARKS
JOHN WAYNE AP  MOSUNNY   74  62  66 SW12G20   29.97F
LAGUNA BEACH     N/A     73  66  77 SW2       29.98F
LAKE FOREST FR   N/A     84  64  51 CALM      29.82F
SANTA ANA        N/A     80  68  65 CALM      29.94F
HUNTINGTON BCH   N/A     74  67  78 SW3       29.98S
LOS ALAMITOS   MOSUNNY   77  65  64 S6        29.95S
FULLERTON      SUNNY     80  63  55 SW8       29.96S
LONG BEACH     SUNNY     77  64  64 S7        29.97F
L.A. AP        PTSUNNY   72  63  73 W15G21    29.99S

$$

THE INLAND EMPIRE

CITY           SKY/WX    TMP DP  RH WIND       PRES   REMARKS
CORONA         SUNNY     90  68  48 W15       29.95F
UPLAND AP      FAIR      90  63  40 W12G17    29.98F
CHINO          MOSUNNY   94  66  39 W12G20    29.95F HX  97
ONTARIO        MOSUNNY   94  56  27 SW10G22   29.95F
SAN BERNARDINO MOSUNNY   99  54  22 W12G17    29.95F HX  96
RIVERSIDE AP   SUNNY     96  64  34 W7        29.94F HX  98
MORENO VALLEY    N/A     96  65  35 W6        29.90F HX  99
MARCH ARB      SUNNY     97  56  25 NW10      29.97F HX  95
HORSETHIEF CYN   N/A     95  64  36 NW3       29.89F HX  96
LAKE ELSINORE    N/A     98  64  32 CALM      29.81F HX 100
HEMET AP       FAIR     102  57  22 SW14      29.96F HX 101
FRENCH VALLEY  SUNNY     93  59  31 S10       29.97F
TEMECULA         N/A     92  61  35 CALM        N/A

$$

SAN BERNARDINO AND RIVERSIDE COUNTY MOUNTAINS

CITY           SKY/WX    TMP DP  RH WIND       PRES   REMARKS
BIG BEAR AP    PTSUNNY   79  45  29 W9        30.37S
BIG BEAR LAKE    N/A     81  49  32 CALM      29.89F
WRIGHTWOOD       N/A     79  54  42 CALM      29.69F
ANGELUS OAKS     N/A     85  56  37 CALM      29.79F
IDYLLWILD        N/A     89  52  28 W9        29.80F

$$

SOUTHERN DESERT INCLUDING THE COACHELLA VALLEY

CITY           SKY/WX    TMP DP  RH WIND       PRES   REMARKS
PALM SPRINGS   SUNNY    108  60  21 E13       29.88F HX 109
THOUSAND PALMS   N/A    106  65  26 E9        29.80F HX 110
INDIO            N/A    106  64  25 E8        29.83F HX 109
THERMAL        MOSUNNY  107  67  27 SE18G24   29.81F HX 113
BORREGO AP     MOSUNNY  106  59  21 E13       29.86F HX 106
OCOTILLO WELLS   N/A    109  64  23 S5        29.80F HX 113
CANEBRAKE        N/A    100  60  26 SE1       29.77F HX 100
BLYTHE         MOSUNNY  109  57  18 S16G24    29.84F HX 109
IMPERIAL AP    PTSUNNY  107  63  23 SE15G23   29.80F HX 110
EL CENTRO NAS  MOSUNNY  109  66  25 SE10      29.82F HX 115
YUMA AZ        CLOUDY   106  61  23 S9        29.82F HX 107

$$

UPPER DESERT

CITY           SKY/WX    TMP DP  RH WIND       PRES   REMARKS
VICTORVILLE AP MOSUNNY  100  48  17 S15G21    30.04F HX  97
HESPERIA         N/A     96  53  23 SW20      29.67F
APPLE VALLEY     N/A    101  62  27 CALM      29.84F HX 103
PALMDALE       SUNNY    103  34   9 W21G31    30.01F HX  96
LANCASTER      SUNNY    103  34   9 SW17G28   29.99F HX  96
EDWARDS AFB    MOSUNNY  105  31   8 SW8G18    29.94F HX  98
DAGGETT        MOSUNNY  104  45  13 W7        29.93F HX 100
29 PALMS N     MOSUNNY  104  61  24 S14       30.01F HX 105
29 PALMS JTNP    N/A    104  59  22 CALM      29.74F HX 105
NEEDLES        MOSUNNY  112  58  17 SE17G33   29.86F HX 112

$$

REGIONAL REPORTS

CITY           SKY/WX    TMP DP  RH WIND       PRES   REMARKS
SANTA BARBARA  SUNNY     68  59  73 SW8       29.99F
SANDBERG       SUNNY     93  53  25 SE15G26   30.18
LAS VEGAS NV   CLOUDY    97  52  21 SW14G28   29.96R THUNDER
PHOENIX AZ     MOSUNNY  107  56  18 W7        29.86F HX 106
TIJUANA        SUNNY     77  64  65 W12       30.00F
ENSENADA NW      N/A     69  32  25 W8        29.96F

$$

OFFSHORE ISLANDS

CITY           SKY/WX    TMP DP  RH WIND       PRES   REMARKS
CATALINA ARPT  SUNNY     79  57  46 SW5       30.03F
SAN CLEMENTE I PTSUNNY   71  59  65 W9G16     30.02F
SAN NICOLAS IS MOSUNNY   71  64  78 N13       30.00F

$$

MARINE AND OFFSHORE BUOY REPORTS

STATION/POSITION SKY/WX   TEMP    WIND        PRES    VSBY  SWELL
                          AIR SEA DIR/SP/G                  HT/PER/DIR
                          (F)     (DEG/KT/KT) (MB)    (MI)  (FT/S/D)
TANNER BANKS               62 63  300/ 14/ 17 1016.2F
S CLEMENTE BASIN           64 67  270/ 12/ 14 1014.7F
SAN NICOLAS IS.            60 62                N/A           3/200/17
SO. S. ROSA ISLA           58 61  300/ 14/ 17 1015.7R
W. S. BARBARA CH           56 57  310/ 16/ 17 1015.5F         3/320/ 8
M. S. BARBARA CH           59 61  260/  8/ 10 1014.8F
S. MONICA BASIN               68  190/  2/  4 1016.3F         3/220/16
S PEDRO CHANNEL               71                N/A           2/180/17
OCEANSIDE OFFSHR              72                N/A           3/210/15
TORREY PINES OTR              72                N/A           3/200/17
SAN DIEGO BAY                 71              1015.3
IMPERIAL BEACH                69                N/A           2/240/15
POINT LOMA SOUTH                                N/A           3/190/17

$$




 

View Past Reports for San Diego, CA.

Products Courtesy of NOAA-NWS
NWS Information Parsing Script by Ken True at Saratoga Weather - Script by SE Lincoln Weather.